Location: Newark
(42.8481°N, 0.4872°E)
Time: 16:02:21
(UTC+00:00)

A-11 Canister half - Pass Details

Date: 05 November 2020
Orbit: 1525 x 1683 km, 47.3° (Epoch: 22 November)

Event Time Altitude Azimuth Distance (km) Brightness Sun altitude
Rises 09:18:25 0° 173° (S) 4,873 12.6 22.7°
Reaches altitude 10° 09:23:48 10° 150° (SSE) 3,859 13.1 23.3°
Maximum altitude 09:28:06 14° 123° (ESE) 3,538 12.4 23.8°
Drops below altitude 10° 09:32:22 10° 96° (E) 3,810 11.8 24.2°
Sets 09:37:32 0° 73° (ENE) 4,765 11.8 24.7°
